This is the latest recevied weather packets stored in our database for station/object W2JBO-5. If no packets are shown the sender has not sent any weather packets the latest 10 day(s).
| Time | Temp. | Humidity | Pressure | Rain* | Wind** | Luminosity | Snow |
|---|---|---|---|---|---|---|---|
| 1777556403 | 20° C | 99% | 1012.4 hPa | 0 mm | - | 69 W/m² | - |
| 1777556098 | 20° C | 99% | 1012.4 hPa | 0 mm | - | 70 W/m² | - |
| 1777555797 | 20° C | 99% | 1012.4 hPa | 0 mm | - | 52 W/m² | - |
| 1777555494 | 20° C | 99% | 1012.4 hPa | 0 mm | - | 38 W/m² | - |
| 1777555190 | 20° C | 99% | 1012 hPa | 0 mm | - | 44 W/m² | - |
| 1777554888 | 20° C | 99% | 1011.9 hPa | 0 mm | - | 36 W/m² | - |
| 1777554585 | 20° C | 99% | 1011.9 hPa | 0 mm | - | 29 W/m² | - |
| 1777554281 | 20° C | 99% | 1011.9 hPa | 0 mm | - | 22 W/m² | - |
| 1777553978 | 20° C | 99% | 1012.1 hPa | 0 mm | - | 16 W/m² | - |
| 1777553675 | 20° C | 99% | 1012.1 hPa | 0 mm | - | 20 W/m² | - |
| 1777553372 | 20° C | 99% | 1012.1 hPa | 0 mm | - | 25 W/m² | - |
| 1777553068 | 20° C | 99% | 1011.9 hPa | 0 mm | - | 22 W/m² | - |
| 1777552763 | 20° C | 99% | 1011.7 hPa | 0 mm | - | 17 W/m² | - |
| 1777552459 | 20° C | 99% | 1011.7 hPa | 0 mm | - | 10 W/m² | - |
| 1777552156 | 20° C | 99% | 1011.6 hPa | 0 mm | - | 14 W/m² | - |
| 1777551852 | 20° C | 99% | 1011.6 hPa | 0 mm | - | 15 W/m² | - |
| 1777551550 | 20° C | 99% | 1011.6 hPa | 0 mm | - | 16 W/m² | - |
| 1777551247 | 20° C | 99% | 1011.6 hPa | 0 mm | - | 13 W/m² | - |
| 1777550944 | 20° C | 99% | 1011.6 hPa | 0 mm | - | 15 W/m² | - |
| 1777550641 | 20° C | 99% | 1011.4 hPa | 0 mm | - | 11 W/m² | - |
| 1777550336 | 20° C | 99% | 1010.5 hPa | 0 mm | - | 10 W/m² | - |
| 1777550032 | 20° C | 99% | 1010.5 hPa | 0 mm | - | 17 W/m² | - |
| 1777549729 | 20° C | 99% | 1010.5 hPa | 0 mm | - | 17 W/m² | - |
| 1777549424 | 20° C | 99% | 1010.5 hPa | 0 mm | - | 7 W/m² | - |
| 1777549121 | 20° C | 99% | 1010.5 hPa | 0 mm | - | 6 W/m² | - |
* Rain latest hour (hover to see other rain measurements)
** Current wind speed in m/s (hover to see current wind gust speed)